TimeEDT,TemperatureF,Dew PointF,Humidity,Sea Level PressureIn,VisibilityMPH,Wind Direction,Wind SpeedMPH,Gust SpeedMPH,PrecipitationIn,Events,Conditions,WindDirDegrees,DateUTC
12:15 AM,64.4,64.4,100,30.32,10.0,Calm,Calm,-,N/A,,Clear,0,2013-08-25 04:15:00
12:35 AM,64.4,64.4,100,30.33,10.0,Calm,Calm,-,N/A,,Clear,0,2013-08-25 04:35:00
12:55 AM,64.4,-9999,N/A,30.32,10.0,Calm,Calm,-,N/A,,Clear,0,2013-08-25 04:55:00
1:15 AM,64.4,64.4,100,30.32,10.0,Calm,Calm,-,N/A,,Clear,0,2013-08-25 05:15:00
1:35 AM,64.4,-9999,N/A,30.31,10.0,Calm,Calm,-,N/A,,Clear,0,2013-08-25 05:35:00
1:55 AM,64.4,-9999,N/A,30.31,10.0,Calm,Calm,-,N/A,,Clear,0,2013-08-25 05:55:00
2:15 AM,62.6,-9999,N/A,30.31,10.0,Calm,Calm,-,N/A,,Clear,0,2013-08-25 06:15:00
2:35 AM,62.6,-9999,N/A,30.31,10.0,Calm,Calm,-,N/A,,Clear,0,2013-08-25 06:35:00
2:55 AM,62.6,-9999,N/A,30.31,10.0,Calm,Calm,-,N/A,,Clear,0,2013-08-25 06:55:00
3:15 AM,62.6,-9999,N/A,30.31,10.0,Calm,Calm,-,N/A,,Clear,0,2013-08-25 07:15:00
3:35 AM,62.6,-9999,N/A,30.31,10.0,Calm,Calm,-,N/A,,Clear,0,2013-08-25 07:35:00
3:55 AM,62.6,-9999,N/A,30.31,10.0,Calm,Calm,-,N/A,,Clear,0,2013-08-25 07:55:00
4:15 AM,62.6,-9999,N/A,30.30,10.0,Calm,Calm,-,N/A,,Clear,0,2013-08-25 08:15:00
4:35 AM,60.8,-9999,N/A,30.31,10.0,Calm,Calm,-,N/A,,Clear,0,2013-08-25 08:35:00
4:55 AM,60.8,-9999,N/A,30.31,5.0,Calm,Calm,-,N/A,,Clear,0,2013-08-25 08:55:00
5:15 AM,60.8,-9999,N/A,30.32,10.0,Calm,Calm,-,N/A,,Clear,0,2013-08-25 09:15:00
5:35 AM,60.8,-9999,N/A,30.32,10.0,Calm,Calm,-,N/A,,Clear,0,2013-08-25 09:35:00
5:55 AM,60.8,-9999,N/A,30.33,10.0,Calm,Calm,-,N/A,,Clear,0,2013-08-25 09:55:00
6:15 AM,60.8,-9999,N/A,30.33,10.0,Calm,Calm,-,N/A,,Clear,0,2013-08-25 10:15:00
6:35 AM,60.8,-9999,N/A,30.34,10.0,Calm,Calm,-,N/A,,Clear,0,2013-08-25 10:35:00
6:55 AM,60.8,-9999,N/A,30.35,10.0,Calm,Calm,-,N/A,,Clear,0,2013-08-25 10:55:00
7:15 AM,60.8,-9999,N/A,30.36,10.0,Calm,Calm,-,N/A,,Clear,0,2013-08-25 11:15:00
7:35 AM,62.6,-9999,N/A,30.37,10.0,Calm,Calm,-,N/A,,Clear,0,2013-08-25 11:35:00
7:55 AM,64.4,-9999,N/A,30.38,10.0,Calm,Calm,-,N/A,,Clear,0,2013-08-25 11:55:00
8:15 AM,66.2,66.2,100,30.38,10.0,Calm,Calm,-,N/A,,Clear,0,2013-08-25 12:15:00
8:35 AM,68.0,66.2,94,30.38,10.0,NNE,4.6,-,N/A,,Clear,20,2013-08-25 12:35:00
8:55 AM,69.8,66.2,88,30.38,10.0,NNE,4.6,-,N/A,,Clear,30,2013-08-25 12:55:00
9:15 AM,71.6,66.2,83,30.38,10.0,NNE,4.6,-,N/A,,Clear,30,2013-08-25 13:15:00
9:35 AM,73.4,64.4,73,30.39,10.0,North,6.9,-,N/A,,Clear,10,2013-08-25 13:35:00
9:55 AM,73.4,62.6,69,30.40,10.0,NE,8.1,-,N/A,,Scattered Clouds,40,2013-08-25 13:55:00
10:15 AM,75.2,62.6,65,30.40,10.0,NE,9.2,-,N/A,,Scattered Clouds,50,2013-08-25 14:15:00
10:35 AM,75.2,62.6,65,30.40,10.0,NE,8.1,-,N/A,,Scattered Clouds,40,2013-08-25 14:35:00
10:55 AM,75.2,60.8,61,30.40,10.0,ENE,9.2,-,N/A,,Scattered Clouds,70,2013-08-25 14:55:00
11:15 AM,75.2,60.8,61,30.39,10.0,NE,8.1,-,N/A,,Clear,50,2013-08-25 15:15:00
11:35 AM,75.2,59.0,57,30.40,10.0,NE,11.5,-,N/A,,Clear,40,2013-08-25 15:35:00
11:55 AM,77.0,59.0,54,30.40,10.0,NE,8.1,-,N/A,,Clear,50,2013-08-25 15:55:00
12:15 PM,78.8,60.8,54,30.39,10.0,NE,4.6,-,N/A,,Clear,40,2013-08-25 16:15:00
12:35 PM,78.8,60.8,54,30.38,10.0,NNE,8.1,-,N/A,,Clear,30,2013-08-25 16:35:00
12:55 PM,77.0,60.8,57,30.38,10.0,NE,8.1,-,N/A,,Clear,50,2013-08-25 16:55:00
1:15 PM,78.8,60.8,54,30.37,10.0,ENE,5.8,-,N/A,,Clear,70,2013-08-25 17:15:00
1:35 PM,78.8,57.2,47,30.37,10.0,ENE,10.4,16.1,N/A,,Clear,70,2013-08-25 17:35:00
1:55 PM,78.8,55.4,44,30.37,10.0,East,9.2,-,N/A,,Clear,90,2013-08-25 17:55:00
2:15 PM,78.8,57.2,47,30.36,10.0,East,8.1,11.5,N/A,,Clear,100,2013-08-25 18:15:00
2:35 PM,78.8,57.2,47,30.35,10.0,ENE,12.7,-,N/A,,Clear,70,2013-08-25 18:35:00
2:55 PM,78.8,57.2,47,30.35,10.0,East,9.2,-,N/A,,Clear,80,2013-08-25 18:55:00
3:15 PM,78.8,57.2,47,30.34,10.0,NE,9.2,-,N/A,,Clear,50,2013-08-25 19:15:00
3:35 PM,78.8,57.2,47,30.33,10.0,East,6.9,10.4,N/A,,Clear,90,2013-08-25 19:35:00
3:55 PM,78.8,57.2,47,30.33,10.0,ENE,8.1,-,N/A,,Clear,60,2013-08-25 19:55:00
4:15 PM,78.8,57.2,47,30.34,10.0,East,11.5,-,N/A,,Clear,80,2013-08-25 20:15:00
4:35 PM,78.8,55.4,44,30.33,10.0,ENE,9.2,-,N/A,,Clear,70,2013-08-25 20:35:00
4:55 PM,78.8,53.6,42,30.34,10.0,ENE,9.2,-,N/A,,Clear,70,2013-08-25 20:55:00
5:15 PM,78.8,53.6,42,30.34,10.0,NE,8.1,-,N/A,,Clear,50,2013-08-25 21:15:00
5:35 PM,78.8,51.8,39,30.33,10.0,NE,9.2,-,N/A,,Clear,40,2013-08-25 21:35:00
5:55 PM,77.0,53.6,44,30.33,10.0,NE,5.8,-,N/A,,Clear,50,2013-08-25 21:55:00
6:15 PM,77.0,53.6,44,30.32,10.0,NE,6.9,-,N/A,,Clear,40,2013-08-25 22:15:00
6:35 PM,75.2,55.4,50,30.32,10.0,NE,4.6,-,N/A,,Clear,50,2013-08-25 22:35:00
6:55 PM,73.4,55.4,53,30.32,10.0,ENE,5.8,-,N/A,,Clear,60,2013-08-25 22:55:00
7:15 PM,71.6,57.2,60,30.31,10.0,Calm,Calm,-,N/A,,Clear,0,2013-08-25 23:15:00
7:35 PM,69.8,57.2,64,30.31,10.0,Calm,Calm,-,N/A,,Clear,0,2013-08-25 23:35:00
7:55 PM,66.2,59.0,78,30.31,10.0,Calm,Calm,-,N/A,,Clear,0,2013-08-25 23:55:00
8:15 PM,66.2,60.8,83,30.31,10.0,Calm,Calm,-,N/A,,Clear,0,2013-08-26 00:15:00
8:35 PM,64.4,60.8,88,30.31,10.0,Calm,Calm,-,N/A,,Clear,0,2013-08-26 00:35:00
8:55 PM,62.6,60.8,94,30.32,10.0,Calm,Calm,-,N/A,,Clear,0,2013-08-26 00:55:00
9:15 PM,60.8,60.8,100,30.33,10.0,Calm,Calm,-,N/A,,Clear,0,2013-08-26 01:15:00
9:35 PM,62.6,60.8,94,30.32,10.0,Calm,Calm,-,N/A,,Clear,0,2013-08-26 01:35:00
9:55 PM,60.8,59.0,94,30.32,10.0,Calm,Calm,-,N/A,,Clear,0,2013-08-26 01:55:00
10:15 PM,60.8,59.0,94,30.32,10.0,Calm,Calm,-,N/A,,Clear,0,2013-08-26 02:15:00
10:35 PM,60.8,59.0,94,30.32,10.0,Calm,Calm,-,N/A,,Clear,0,2013-08-26 02:35:00
10:55 PM,59.0,59.0,100,30.32,10.0,Calm,Calm,-,N/A,,Clear,0,2013-08-26 02:55:00
11:15 PM,59.0,59.0,100,30.33,10.0,Calm,Calm,-,N/A,,Clear,0,2013-08-26 03:15:00
11:35 PM,57.2,57.2,100,30.33,10.0,Calm,Calm,-,N/A,,Clear,0,2013-08-26 03:35:00
11:55 PM,57.2,57.2,100,30.34,10.0,Calm,Calm,-,N/A,,Clear,0,2013-08-26 03:55:00